Showing default

TKSAT 1, 39481

Orbit data source: Space-Track

TKSAT 1, 39481 is a payload satellite owned by AE Boliviana (BO) in GEO that was launched on Fri, 20 Dec 2013 UTC via a CHANG ZHENG 3B launch vehicle from the Xichang Space Center, China (XSC). Payload-class satellites include a variety of spacecraft equipped with specific instruments for various scientific and technological missions. These include communications satellites like Starlink; space stations such as the ISS; scientific satellites like the Hubble; Earth observation satellites from companies like Planet Labs, Umbra, and HawkEye 360; GPS; miniature CubeSats for education and research; and military/defense satellites.

Loading next visibility...
Identifier
39481, 2013-075A
Orbit
GEO
Country
Flag of BOBO / BOL
Related business
Manufacturer
CAST
Mission
Operational Civil Communications
Bus & Motor
DFH-4, DFH-4 LAE
Mass
~5,086 kg wet, ~2,500 kg dry
Launch date (UTC)
2013-12-20 (13 years ago)
Launch vehicle
CHANG ZHENG 3B
Launch site
Xichang Space Center, China (XSC)
Object type
Payload
Rocket body
Debris
Shape & HBR
Box + 2 Pan, 15.0 m
Radar Cross Section
34.063 m², Large (>1 m²)

Expand to show TLE details & history
Last TLE update: 10 hours ago

TLE from 10 hours ago
0 TKSAT 1
1 39481U 13075A   26263.48682192 -.00000199  00000-0  00000-0 0  9990
2 39481   0.0393  13.8847 0002157 147.3950 286.1761  1.00272219 46552
Epoch: 2026-09-20T11:41Z
TLE epoch observation values (Epoch: 2026-09-20T11:41:01.413Z)
Latitude
0.00257°
Longitude
-87.21578°
Altitude
35,783.438 km
Speed
3.075 km/s
True Right ascension
05h 49m 40s
True Declination
0° 00' 09"
Sunlit
Object was in daylight at epoch
Visualization orbit readout
Latitude
Unknown
Longitude
Unknown
Altitude
Unknown
Speed
Unknown
Apparent Right ascension
Unknown
Apparent Declination
Unknown
Sunlit
N/A
Visualization observer readout
Local Sidereal Time
14:34:22
Azimuth
Unknown
Elevation
Unknown
Doppler factor
Unknown
Orbital elements
Apogee altitude
35,796.639 km
Perigee altitude
35,778.449 km
Semi-major axis
42,165.681 km
Eccentricity
0.00022
Inclination
0.0393°
RAAN
13.8847°
Arg. of periapsis
147.395°
True anomaly
286.15236°
Mean anomaly
286.1761°
Eccentric anomaly
286.16423°
Mean motion
0.25067 °/min
Orbital period
1,436.14 mins
BSTAR
0
Loading maneuver chart data...
Computing Atmospheric mass density...
Loading historical data...
Loading historical data...
Loading historical data...
Loading historical data...
Loading historical data...
Loading historical data...
Loading historical data...
Other satellites on launch #75 in the year 2013 (2013-12-20 UTC)

Documentation

Showing up to 5 results
|